Regional Weather Roundup
Issued by NWS Wakefield, VA

Home | Current Version | Previous Version | Text Only | Print | Product List | Glossary On
Versions: 1 2 3 4 5 6 7 8 9 10 11 12 13 14 15 16 17 18 19 20 21 22 23 24 25 26 27 28 29 30 31 32 33 34 35 36 37 38 39 40 41 42 43 44 45 46 47 48 49 50
000
ASUS41 KAKQ 291115
RWRAKQ

REGIONAL WEATHER ROUNDUP
NATIONAL WEATHER SERVICE WAKEFIELD VA
700 AM EDT WED JUL 29 2015

Note: "fair" indicates few or no clouds below 12,000 feet with no
significant weather and/or obstructions to visibility. * = Denotes
station may not report precipitation (e.g., rain,snow,etc.),
thunder or fog.

VAZ042-051-052>054-056-291200-
NORTHERN VIRGINIA

CITY           SKY/WX    TMP DP  RH WIND       PRES   REMARKS
WASH NATIONAL  MOCLDY    79  74  84 CALM      30.00S
DULLES         CLOUDY    72  72 100 CALM      30.00S FOG
FORT BELVOIR   CLOUDY    73  72  94 CALM      29.99F FOG
QUANTICO       PTCLDY    74  71  91 MISG      30.00S
FREDERICKSBRG* PTCLDY    29  29 100 CALM      29.99S
STAFFORD*      PTCLDY    70  69  97 CALM      30.03S FOG
WARRENTON      FOG       73  73 100 CALM      30.00S VSB<1/4
CULPEPER*      FOG       71  71 100 CALM      30.01S VSB 1/2
MANASSAS*      CLOUDY    72  72 100 CALM      30.00S VSB 1/2
LEESBURG*      CLOUDY    72  72 100 CALM      30.02R FOG
WINCHESTER     CLEAR     70  68  94 CALM      30.01S FOG
FRONT ROYAL*   CLOUDY    70  68  94 CALM      30.01R VSB<1/4
LURAY*         CLOUDY    70  70 100 CALM      30.02S FOG
$$

VAZ048-049-060>072-079>083-291200-
CENTRAL AND SOUTH CENTRAL VIRGINIA

CITY           SKY/WX    TMP DP  RH WIND       PRES   REMARKS
RICHMOND       MOCLDY    75  71  87 CALM      30.00S
CHESTERFIELD*  CLOUDY    73  63  68 SE3       30.01S
PETERSBURG*    CLOUDY    73  73 100 CALM      30.01S
HANOVER        LGT RAIN  74  72  93 CALM      30.02R
TAPPAHANNOCK*  CLEAR     72  70  92 CALM      30.01S
QUINTON*       PTSUNNY   71  71  98 CALM      30.00S
CHARLOTTSVILLE FOG       72  71  97 N3        30.01S VSB 1/2
GORDONSVILLE*  CLOUDY    72  72 100 CALM      30.00S FOG
ORANGE*        CLOUDY    73  73 100 CALM      30.02S FOG
LOUISA*        CLOUDY    73  72  94 CALM      30.00S FOG
BUMPASS*       CLOUDY    73  73  99 CALM      30.00R
FARMVILLE*     CLOUDY    74  74 100 CALM      29.99S FOG
CREWE*         CLOUDY   N/A N/A N/A S5        30.00S
FORT PICKETT*  CLOUDY    73  72  96 S7        30.01S
CHASE CITY*    PTSUNNY   75  75 100 SE3       30.01S
CLARKSVILLE*   PTSUNNY   72  72 100 CALM      30.01R
SOUTH HILL*    CLOUDY    72  71  97 SW3       30.07S
LAWRENCEVILLE* CLOUDY    73  72  94 CALM      30.01S
EMPORIA*       MOCLDY    72  70  94 CALM      30.02S
$$

VAZ088>098-291200-
SOUTHEAST VIRGINIA

CITY           SKY/WX    TMP DP  RH WIND       PRES   REMARKS
NORFOLK        CLEAR     76  71  85 S5        30.00S
VIRGINIA BEACH PTCLDY    78  72  81 CALM      30.00R
NORFOLK NAVAL  PTCLDY    76  71  85 S3        30.02R
WEST POINT*    CLOUDY    78  73  83 CALM      30.02S
SALUDA*        PTSUNNY   74  72  93 SW5       30.00R
NEWPORT NEWS   CLEAR     76  72  87 W5        30.01R
LANGLEY AFB    CLEAR     75  72  90 S5        30.01R
FORT EUSTIS    CLEAR     76  76 100 S2        29.99R
WILLIAMSBURG*  CLEAR     79  73  83 SW3       30.02R
HR EXEC AP*    FAIR      70  66  88 CALM      30.02S
FRANKLIN*      PTCLDY    71  70  97 CALM      30.01S
WAKEFIELD      CLOUDY    74  71  91 CALM      30.01R
$$

VAZ020-022-025-037-045-291200-
WEST CENTRAL AND SOUTHWEST VIRGINIA

CITY           SKY/WX    TMP DP  RH WIND       PRES   REMARKS
STAUNTON*      CLOUDY    73  71  95 N3        30.05S FOG
WAYNESBORO*    CLOUDY    70  70 100 MISG      30.04S
HOT SPRINGS VA FOG       67  67 100 W6        30.13S VSB<1/4
LYNCHBURG      CLOUDY    72  72 100 E3        30.03R FOG
DANVILLE       FOG       73  72  96 CALM      30.01R VSB 1/4
SOUTH BOSTON*  CLOUDY    72  70  95 CALM      30.00S VSB 1/4
MARTINSVILLE   CLOUDY    72  72 100 CALM      30.05R FOG
ROANOKE        CLOUDY    74  72  93 CALM      30.05R
BLACKSBURG     CLOUDY    71  71 100 CALM      30.11R FOG
DUBLIN*        FOG       71  71 100 CALM      30.10R VSB 1/4
MARION*        MOCLDY    67  66  96 W5        30.12R FOG
HILLSVILLE*    FOG       65  65 100 CALM      30.10R VSB 1/4
RICHLANDS*     CLOUDY    68  68 100 CALM      30.10R FOG
WISE*          FOG       72  72 100 CALM      30.10S VSB<1/4
ABINGDON*      MOCLDY    69  68  96 CALM      30.08R FOG
$$

MDZ021>025-VAZ099-100-291200-
SOUTHERN MARYLAND AND THE DELMARVA PENINSULA

CITY           SKY/WX    TMP DP  RH WIND       PRES   REMARKS
PATUXENT RIVER MOCLDY    76  72  87 SW7       29.99R
BAY BRIDGE APT   N/A     77  75  94 CALM      30.00R
LEONARDTOWN    CLOUDY    73  72  94 CALM      30.01S
DOVER          SUNNY     74  74 100 S3        29.98R
GEORGETOWN     SUNNY     72  71  97 CALM      30.01R
EASTON         FOG       75  75 100 CALM      30.04R VSB 1
CAMBRIDGE      PTCLDY    72  70  94 CALM      30.00R
SALISBURY      CLEAR     71  70  96 CALM      30.01R
OCEAN CITY     SUNNY     73  71  93 CALM      30.00R
WALLOPS ISLAND CLEAR     76  75  97 SW6       30.01R
ACCOMACK*      CLEAR    N/A N/A N/A S3        30.00S
$$

NCZ012>017-030>032-291200-
NORTH CENTRAL AND EASTERN NORTH CAROLINA

CITY           SKY/WX    TMP DP  RH WIND       PRES   REMARKS
ROANOKE RAPIDS PTSUNNY   70  68  94 CALM      30.01R
RALEIGH        CLOUDY    75  70  84 SE3       30.01S
ELIZABETH CITY CLEAR     72  71  97 CALM      30.01R
AHOSKIE*       PTCLDY    68  67  96 CALM      30.01S
EDENTON*       CLEAR     71  69  93 SE3       30.01R
CURRITUCK*     CLEAR     73  69  89 CALM      30.02R
KILL DEVIL HLS CLEAR     75  71  86 CALM      30.01R
MANTEO         CLEAR     76  71  84 SE5       30.02R
CAPE HATTERAS  CLEAR     79  69  71 E7        30.00R
TARBORO*         N/A     73  71  95 CALM      30.02R
GOLDSBORO      MOCLDY    74  71  92 SW1       29.99R
WASHINGTON     CLEAR     70  69  95 CALM      30.01S
GREENVILLE     CLEAR     72  72 100 CALM      30.02S
NEW BERN       CLEAR     73  70  90 CALM      30.01R
WILMINGTON     CLEAR     73  70  90 N3        29.98R
$$

VAZ048-291200-
ELSEWHERE

CITY           SKY/WX    TMP DP  RH WIND       PRES   REMARKS
HARRISBURG PA  MOCLDY    73  68  84 CALM      29.98S
BALTIMORE      PTCLDY    73  71  93 CALM      29.99S FOG
ANNAPOLIS      CLEAR     77  73  87 CALM      30.00R
ANDREWS AFB    PTCLDY    73  73 100 S7        29.99S FOG
PHILADELPHIA   MOSUNNY   78  72  81 CALM      29.99R
HENDERSON NC   MOCLDY    73  67  82 S3        30.02R
GREENSBORO     MOCLDY    73  72  94 CALM      30.02R
ROCKY MOUNT    CLOUDY    73  72  96 CALM      30.01R
$$

VAZ100-291200-
MARINE

STATION/POSITION TIME  TEMP    WIND        PRES    WAVE   SWELL
                       AIR SEA DIR/SP/G            HT/PER HT/PER
                 (UTC) (F)     (DEG/KT/KT) (MB)    (FT/S) (FT/S)
BRANDYWINE LGT   1000   75 76  240/  8/  9 1015.8R
CAPE MAY NJ      1000   74 78  230/  4/  6 1015.3R
LEWES DE         1000   73 73  220/  4/  5 1015.4R
15NM E FENWICK I 1050   78 78  240/  6/  8 1016.1R   2/11   2/11
OCEAN-CITY-INLET 1000   75 75  260/  2/  2 1014.8R
WACHAPREAGUE VA  1000   75 83  260/  3/  4 1015.9R
GOOSES REEF MD   1100   80 82  240/  8/  8 1016.6R
COVE POINT MD    1000   77     240/  5/  8 1016.1R
SOLOMONS ISLAND  1000      82                N/A
BISHOPS HEAD MD  1000   80 83  220/  9/ 10 1014.4R
POTOMAC MD       1100   79 83  250/ 12/ 14 1014.5R   1/ 2
CAMBRIDGE MD     1000   76 83  170/  1/  2 1014.5R
LEWISETTA VA     1000   77 84  230/  5/  6 1015.2R
RAPPAHANNOCK LGT 1000          230/ 11/ 12 1016.2R
STINGRAY PT      1100   79 83  240/ 10/ 12 1015.9R   1/ 3
YORK RVR RNG VA  1000   78     240/  6/  8 1015.3R
YORKTOWN VA      1000   76 83  220/  4/  5 1015.5R
JAMESTOWN VA     1100   77 84  150/  2/  6   N/A
DOMINION TERM VA 1000   77     210/  5/  6 1015.6R
KIPTOPEKE VA     1000      81  230/  8/ 10   N/A
CHES BAY BRIDGE  1000   77 79  210/  8/ 10 1015.4R
CAPE HENRY VA    1000   76     210/  4/  6   N/A
CHESAPEAKE LGHT  1000   79     220/  9/ 10 1016.2R
WILLOUBY STN VA  1000   77     220/  8/  8 1016.6R
CAPE HENRY BUOY  1028      81                N/A     3/11   2/11
1ST LANDING BUOY 1100      80              1015.8R   1/ 4
CAPE CHARLES BUO 1026      80                N/A     2/11   2/11
OFFSHORE WE BUOY 1011      81                N/A     3/11   2/11
64NM E OF VA BCH 1050   80 80  170/  6/  8 1016.2R   2/10   2/10
DUCK PIER NC     1000   77 66  160/  7/  7 1014.9R
44100 DUCK FRF   1024      81                N/A     2/10
44056 DUCK FRF   1011      78                N/A     2/11
OREGON INLET NC  1000   77 82  130/  3/  4 1015.6R
HATTERAS NC      1000   80 83  110/  6/ 10 1015.2R
CAPE LOOKOUT NC  1100   81      90/ 14/ 14 1014.9R
$$



USA.gov is the U.S. government's official web portal to all federal, state and local government web resources and services.